Time,TemperatureF,DewpointF,PressureIn,WindDirection,WindDirectionDegrees,WindSpeedMPH,WindSpeedGustMPH,Humidity,HourlyPrecipIn,Conditions,Clouds,dailyrainin,SolarRadiationWatts/m^2,SoftwareType,DateUTC
2013-03-02 00:02:00,31.0,30.0,-100.00,WSW,257,1.0,3.0,96,0.00,,,0.01,0.000000,,2013-03-02 06:02:00,
2013-03-02 00:32:00,31.0,30.0,-100.00,West,278,1.0,4.0,96,0.00,,,0.01,0.000000,,2013-03-02 06:32:00,
2013-03-02 00:42:00,31.0,30.0,-100.00,West,278,1.0,4.0,96,0.00,,,0.01,0.000000,,2013-03-02 06:42:00,
2013-03-02 00:52:00,31.0,30.0,-100.00,West,278,1.0,4.0,96,0.00,,,0.01,0.000000,,2013-03-02 06:52:00,
2013-03-02 01:02:00,31.0,30.0,-100.00,West,278,1.0,4.0,96,0.00,,,0.01,0.000000,,2013-03-02 07:02:00,
2013-03-02 01:32:00,31.0,30.0,-100.00,NNW,339,2.0,6.0,95,0.00,,,0.01,0.000000,,2013-03-02 07:32:00,
2013-03-02 01:42:00,31.0,30.0,-100.00,NNW,339,2.0,6.0,95,0.00,,,0.01,0.000000,,2013-03-02 07:42:00,
2013-03-02 01:52:00,31.0,30.0,-100.00,NNW,339,2.0,6.0,95,0.00,,,0.01,0.000000,,2013-03-02 07:52:00,
2013-03-02 02:01:00,31.0,30.0,-100.00,NNW,339,2.0,6.0,95,0.00,,,0.01,0.000000,,2013-03-02 08:01:00,
2013-03-02 02:32:00,30.0,28.0,-100.00,NNW,348,2.0,5.0,93,0.00,,,0.01,0.000000,,2013-03-02 08:32:00,
2013-03-02 02:43:00,30.0,28.0,-100.00,NNW,348,2.0,5.0,93,0.00,,,0.01,0.000000,,2013-03-02 08:43:00,
2013-03-02 02:52:00,30.0,28.0,-100.00,NNW,348,2.0,5.0,93,0.00,,,0.01,0.000000,,2013-03-02 08:52:00,
2013-03-02 03:02:00,30.0,28.0,-100.00,NNW,348,2.0,5.0,93,0.00,,,0.01,0.000000,,2013-03-02 09:02:00,
2013-03-02 03:32:00,30.0,28.0,-100.00,WNW,300,1.0,4.0,94,0.00,,,0.01,0.000000,,2013-03-02 09:32:00,
2013-03-02 03:42:00,30.0,28.0,-100.00,WNW,300,1.0,4.0,94,0.00,,,0.01,0.000000,,2013-03-02 09:42:00,
2013-03-02 03:52:00,30.0,28.0,-100.00,WNW,300,1.0,4.0,94,0.00,,,0.01,0.000000,,2013-03-02 09:52:00,
2013-03-02 04:01:00,30.0,28.0,-100.00,WNW,300,1.0,4.0,94,0.00,,,0.01,0.000000,,2013-03-02 10:01:00,
2013-03-02 04:32:00,29.0,27.0,-100.00,West,279,1.0,5.0,93,0.00,,,0.01,0.000000,,2013-03-02 10:32:00,
2013-03-02 04:43:00,29.0,27.0,-100.00,West,279,1.0,5.0,93,0.00,,,0.01,0.000000,,2013-03-02 10:43:00,
2013-03-02 04:52:00,29.0,27.0,-100.00,West,279,1.0,5.0,93,0.00,,,0.01,0.000000,,2013-03-02 10:52:00,
2013-03-02 05:01:00,29.0,27.0,-100.00,West,279,1.0,5.0,93,0.00,,,0.01,0.000000,,2013-03-02 11:01:00,
2013-03-02 05:32:00,30.0,28.0,-100.00,WNW,299,2.0,5.0,92,0.00,,,0.01,0.000000,,2013-03-02 11:32:00,
2013-03-02 05:42:00,30.0,28.0,-100.00,WNW,299,2.0,5.0,92,0.00,,,0.01,0.000000,,2013-03-02 11:42:00,
2013-03-02 05:52:00,30.0,28.0,-100.00,WNW,299,2.0,5.0,92,0.00,,,0.01,0.000000,,2013-03-02 11:52:00,
2013-03-02 06:02:00,30.0,28.0,-100.00,WNW,299,2.0,5.0,92,0.00,,,0.01,0.000000,,2013-03-02 12:02:00,
2013-03-02 06:33:00,29.0,27.0,-100.00,West,276,2.0,5.0,92,0.00,,,0.01,0.000000,,2013-03-02 12:33:00,
2013-03-02 06:43:00,29.0,27.0,-100.00,West,276,2.0,5.0,92,0.00,,,0.01,0.000000,,2013-03-02 12:43:00,
2013-03-02 06:53:00,29.0,27.0,-100.00,West,276,2.0,5.0,92,0.00,,,0.01,0.000000,,2013-03-02 12:53:00,
2013-03-02 07:01:00,29.0,27.0,-100.00,West,276,2.0,5.0,92,0.00,,,0.01,0.000000,,2013-03-02 13:01:00,
2013-03-02 07:32:00,30.0,27.0,-100.00,NW,325,2.0,5.0,88,0.00,,,0.01,7.000000,,2013-03-02 13:32:00,
2013-03-02 07:42:00,30.0,27.0,-100.00,NW,325,2.0,5.0,88,0.00,,,0.01,7.000000,,2013-03-02 13:42:00,
2013-03-02 07:52:00,30.0,27.0,-100.00,NW,325,2.0,5.0,88,0.00,,,0.01,7.000000,,2013-03-02 13:52:00,
2013-03-02 08:01:00,30.0,27.0,-100.00,NW,325,2.0,5.0,88,0.00,,,0.01,7.000000,,2013-03-02 14:01:00,
2013-03-02 08:32:00,30.0,27.0,-100.00,NW,304,2.0,6.0,89,0.00,,,0.01,13.000000,,2013-03-02 14:32:00,
2013-03-02 08:42:00,30.0,27.0,-100.00,NW,304,2.0,6.0,89,0.00,,,0.01,13.000000,,2013-03-02 14:42:00,
2013-03-02 08:52:00,30.0,27.0,-100.00,NW,304,2.0,6.0,89,0.00,,,0.01,13.000000,,2013-03-02 14:52:00,
2013-03-02 09:02:00,30.0,27.0,-100.00,NW,304,2.0,6.0,89,0.00,,,0.01,13.000000,,2013-03-02 15:02:00,
2013-03-02 09:32:00,31.0,27.0,-100.00,NW,319,3.0,8.0,85,0.00,,,0.00,34.000000,,2013-03-02 15:32:00,
2013-03-02 09:42:00,31.0,27.0,-100.00,NW,319,3.0,8.0,85,0.00,,,0.00,34.000000,,2013-03-02 15:42:00,
2013-03-02 09:52:00,31.0,27.0,-100.00,NW,319,3.0,8.0,85,0.00,,,0.00,34.000000,,2013-03-02 15:52:00,
2013-03-02 10:02:00,31.0,27.0,-100.00,NW,319,3.0,8.0,85,0.00,,,0.00,34.000000,,2013-03-02 16:02:00,
2013-03-02 10:32:00,31.0,27.0,-100.00,NW,314,3.0,8.0,84,0.00,,,0.00,33.000000,,2013-03-02 16:32:00,
2013-03-02 10:42:00,31.0,27.0,-100.00,NW,314,3.0,8.0,84,0.00,,,0.00,33.000000,,2013-03-02 16:42:00,
2013-03-02 10:52:00,31.0,27.0,-100.00,NW,314,3.0,8.0,84,0.00,,,0.00,33.000000,,2013-03-02 16:52:00,
2013-03-02 11:01:00,31.0,27.0,-100.00,NW,314,3.0,8.0,84,0.00,,,0.00,33.000000,,2013-03-02 17:01:00,
2013-03-02 11:32:00,31.0,28.0,-100.00,WNW,297,3.0,7.0,87,0.04,,,0.04,32.000000,,2013-03-02 17:32:00,
2013-03-02 11:42:00,31.0,28.0,-100.00,WNW,297,3.0,7.0,87,0.04,,,0.04,32.000000,,2013-03-02 17:42:00,
2013-03-02 11:52:00,31.0,28.0,-100.00,WNW,297,3.0,7.0,87,0.04,,,0.04,32.000000,,2013-03-02 17:52:00,
2013-03-02 12:02:00,31.0,28.0,-100.00,WNW,297,3.0,7.0,87,0.04,,,0.04,32.000000,,2013-03-02 18:02:00,
2013-03-02 12:32:00,31.0,26.0,-100.00,North,356,4.0,11.0,83,0.01,,,0.05,37.000000,,2013-03-02 18:32:00,
2013-03-02 12:42:00,31.0,26.0,-100.00,North,356,4.0,11.0,83,0.01,,,0.05,37.000000,,2013-03-02 18:42:00,
2013-03-02 12:52:00,31.0,26.0,-100.00,North,356,4.0,11.0,83,0.01,,,0.05,37.000000,,2013-03-02 18:52:00,
2013-03-02 13:02:00,31.0,26.0,-100.00,North,356,4.0,11.0,83,0.01,,,0.05,37.000000,,2013-03-02 19:02:00,
2013-03-02 13:32:00,31.0,26.0,-100.00,NNW,342,3.0,9.0,82,0.01,,,0.06,36.000000,,2013-03-02 19:32:00,
2013-03-02 13:43:00,31.0,26.0,-100.00,NNW,342,3.0,9.0,82,0.01,,,0.06,36.000000,,2013-03-02 19:43:00,
2013-03-02 13:52:00,31.0,26.0,-100.00,NNW,342,3.0,9.0,82,0.01,,,0.06,36.000000,,2013-03-02 19:52:00,
2013-03-02 14:01:00,31.0,26.0,-100.00,NNW,342,3.0,9.0,82,0.01,,,0.06,36.000000,,2013-03-02 20:01:00,
2013-03-02 14:32:00,34.0,26.0,-100.00,NNW,333,4.0,10.0,72,0.00,,,0.06,121.000000,,2013-03-02 20:32:00,
2013-03-02 14:42:00,34.0,26.0,-100.00,NNW,333,4.0,10.0,72,0.00,,,0.06,121.000000,,2013-03-02 20:42:00,
2013-03-02 14:53:00,34.0,26.0,-100.00,NNW,333,4.0,10.0,72,0.00,,,0.06,121.000000,,2013-03-02 20:53:00,
2013-03-02 15:02:00,34.0,26.0,-100.00,NNW,333,4.0,10.0,72,0.00,,,0.06,121.000000,,2013-03-02 21:02:00,
2013-03-02 15:32:00,31.0,24.0,-100.00,NNW,330,4.0,11.0,75,0.00,,,0.06,80.000000,,2013-03-02 21:32:00,
2013-03-02 15:42:00,31.0,24.0,-100.00,NNW,330,4.0,11.0,75,0.00,,,0.06,80.000000,,2013-03-02 21:42:00,
2013-03-02 15:52:00,31.0,24.0,-100.00,NNW,330,4.0,11.0,75,0.00,,,0.06,80.000000,,2013-03-02 21:52:00,
2013-03-02 16:02:00,31.0,24.0,-100.00,NNW,330,4.0,11.0,75,0.00,,,0.06,80.000000,,2013-03-02 22:02:00,
2013-03-02 16:32:00,31.0,25.0,-100.00,NW,321,3.0,9.0,77,0.00,,,0.06,33.000000,,2013-03-02 22:32:00,
2013-03-02 16:42:00,31.0,25.0,-100.00,NW,321,3.0,9.0,77,0.00,,,0.06,33.000000,,2013-03-02 22:42:00,
2013-03-02 16:52:00,31.0,25.0,-100.00,NW,321,3.0,9.0,77,0.00,,,0.06,33.000000,,2013-03-02 22:52:00,
2013-03-02 17:02:00,31.0,25.0,-100.00,NW,321,3.0,9.0,77,0.00,,,0.06,33.000000,,2013-03-02 23:02:00,
2013-03-02 17:32:00,29.0,23.0,-100.00,North,350,4.0,11.0,77,0.00,,,0.06,30.000000,,2013-03-02 23:32:00,
2013-03-02 17:42:00,29.0,23.0,-100.00,North,350,4.0,11.0,77,0.00,,,0.06,30.000000,,2013-03-02 23:42:00,
2013-03-02 17:52:00,29.0,23.0,-100.00,North,350,4.0,11.0,77,0.00,,,0.06,30.000000,,2013-03-02 23:52:00,
2013-03-02 18:02:00,29.0,23.0,-100.00,North,350,4.0,11.0,77,0.00,,,0.06,30.000000,,2013-03-03 00:02:00,
2013-03-02 18:32:00,28.0,23.0,-100.00,NNW,336,3.0,11.0,82,0.00,,,0.06,0.000000,,2013-03-03 00:32:00,
2013-03-02 18:42:00,28.0,23.0,-100.00,NNW,336,3.0,11.0,82,0.00,,,0.06,0.000000,,2013-03-03 00:42:00,
2013-03-02 18:52:00,28.0,23.0,-100.00,NNW,336,3.0,11.0,82,0.00,,,0.06,0.000000,,2013-03-03 00:52:00,
2013-03-02 19:01:00,28.0,23.0,-100.00,NNW,336,3.0,11.0,82,0.00,,,0.06,0.000000,,2013-03-03 01:01:00,
2013-03-02 19:32:00,28.0,24.0,-100.00,NNW,346,2.0,9.0,83,0.00,,,0.06,0.000000,,2013-03-03 01:32:00,
2013-03-02 19:42:00,28.0,24.0,-100.00,NNW,346,2.0,9.0,83,0.00,,,0.06,0.000000,,2013-03-03 01:42:00,
2013-03-02 19:52:00,28.0,24.0,-100.00,NNW,346,2.0,9.0,83,0.00,,,0.06,0.000000,,2013-03-03 01:52:00,
2013-03-02 20:01:00,28.0,24.0,-100.00,NNW,346,2.0,9.0,83,0.00,,,0.06,0.000000,,2013-03-03 02:01:00,
2013-03-02 20:32:00,28.0,24.0,-100.00,NNW,345,3.0,8.0,83,0.00,,,0.06,0.000000,,2013-03-03 02:32:00,
2013-03-02 20:42:00,28.0,24.0,-100.00,NNW,345,3.0,8.0,83,0.00,,,0.06,0.000000,,2013-03-03 02:42:00,
2013-03-02 20:52:00,28.0,24.0,-100.00,NNW,345,3.0,8.0,83,0.00,,,0.06,0.000000,,2013-03-03 02:52:00,
2013-03-02 21:02:00,28.0,24.0,-100.00,NNW,345,3.0,8.0,83,0.00,,,0.06,0.000000,,2013-03-03 03:02:00,
2013-03-02 21:32:00,27.0,23.0,-100.00,NNW,341,2.0,7.0,86,0.00,,,0.06,0.000000,,2013-03-03 03:32:00,
2013-03-02 21:42:00,27.0,23.0,-100.00,NNW,341,2.0,7.0,86,0.00,,,0.06,0.000000,,2013-03-03 03:42:00,
2013-03-02 21:52:00,27.0,23.0,-100.00,NNW,341,2.0,7.0,86,0.00,,,0.06,0.000000,,2013-03-03 03:52:00,
2013-03-02 22:01:00,27.0,23.0,-100.00,NNW,341,2.0,7.0,86,0.00,,,0.06,0.000000,,2013-03-03 04:01:00,
2013-03-02 22:32:00,27.0,24.0,-100.00,WNW,298,3.0,6.0,87,0.00,,,0.06,0.000000,,2013-03-03 04:32:00,
2013-03-02 22:42:00,27.0,24.0,-100.00,WNW,298,3.0,6.0,87,0.00,,,0.06,0.000000,,2013-03-03 04:42:00,
2013-03-02 22:52:00,27.0,24.0,-100.00,WNW,298,3.0,6.0,87,0.00,,,0.06,0.000000,,2013-03-03 04:52:00,
2013-03-02 23:02:00,27.0,24.0,-100.00,WNW,298,3.0,6.0,87,0.00,,,0.06,0.000000,,2013-03-03 05:02:00,
2013-03-02 23:32:00,26.0,21.0,-100.00,NNW,342,3.0,8.0,81,0.00,,,0.06,0.000000,,2013-03-03 05:32:00,
2013-03-02 23:42:00,26.0,21.0,-100.00,NNW,342,3.0,8.0,81,0.00,,,0.06,0.000000,,2013-03-03 05:42:00,
2013-03-02 23:52:00,26.0,21.0,-100.00,NNW,342,3.0,8.0,81,0.00,,,0.06,0.000000,,2013-03-03 05:52:00,